This is the latest recevied weather packets stored in our database for station/object EA1IDU-12. If no packets are shown the sender has not sent any weather packets the latest 10 day(s).
| Time | Temp. | Humidity | Pressure | Rain* | Wind** | Luminosity | Snow |
|---|---|---|---|---|---|---|---|
| 1788336601 | 15.56° C | 73% | 1032.7 hPa | - | - | - | - |
| 1788335701 | 14.44° C | 73% | 1032.6 hPa | - | - | - | - |
| 1788334801 | 14.44° C | 74% | 1032.7 hPa | - | - | - | - |
| 1788333901 | 13.89° C | 73% | 1032.5 hPa | - | - | - | - |
| 1788333001 | 13.89° C | 73% | 1032.5 hPa | - | - | - | - |
| 1788332100 | 13.33° C | 73% | 1032.4 hPa | - | - | - | - |
| 1788331200 | 13.33° C | 73% | 1032.2 hPa | - | - | - | - |
| 1788330300 | 12.78° C | 73% | 1032.1 hPa | - | - | - | - |
| 1788329400 | 12.78° C | 72% | 1031.9 hPa | - | - | - | - |
| 1788328500 | 13.33° C | 72% | 1031.8 hPa | - | - | - | - |
| 1788327600 | 13.33° C | 71% | 1031.5 hPa | - | - | - | - |
| 1788326700 | 13.33° C | 70% | 1031.5 hPa | - | - | - | - |
| 1788325799 | 13.33° C | 70% | 1031.5 hPa | - | - | - | - |
| 1788324899 | 12.78° C | 70% | 1031.5 hPa | - | - | - | - |
| 1788323999 | 12.78° C | 69% | 1031.3 hPa | - | - | - | - |
| 1788323116 | 12.78° C | 68% | 1031.4 hPa | - | - | - | - |
| 1788322341 | 12.78° C | 68% | 1031.3 hPa | - | - | - | - |
| 1788321315 | 12.22° C | 68% | 1031.4 hPa | - | - | - | - |
| 1788320415 | 11.67° C | 68% | 1031.4 hPa | - | - | - | - |
| 1788319515 | 10.56° C | 69% | 1031.4 hPa | - | - | - | - |
| 1788318615 | 10.56° C | 69% | 1031.4 hPa | - | - | - | - |
| 1788317715 | 11.11° C | 68% | 1031.4 hPa | - | - | - | - |
| 1788316815 | 11.11° C | 68% | 1031.3 hPa | - | - | - | - |
| 1788315914 | 11.11° C | 68% | 1031.4 hPa | - | - | - | - |
| 1788315014 | 11.67° C | 68% | 1031.5 hPa | - | - | - | - |
* Rain since midnight (hover to see other rain measurements)
** Current wind speed in m/s (hover to see current wind gust speed)